Regional Weather Roundup
Issued by NWS

Home | Current Version | Previous Version | Text Only | Print | Product List | Glossary On
Versions: 1 2 3 4 5 6 7 8 9 10 11 12 13 14 15 16 17 18 19 20 21 22 23 24 25 26 27
000
ASUS45 KREV 272110
RWRNV
NEVADA REGIONAL WEATHER ROUNDUP
NATIONAL WEATHER SERVICE RENO NV
200 PM PDT TUE JUN 27 2017

NOTE: "FAIR" INDICATES FEW OR NO CLOUDS BELOW 12,000 FEET WITH NO
SIGNIFICANT WEATHER AND/OR OBSTRUCTIONS TO VISIBILITY.

NVZ001-003-004-272200-
WESTERN NEVADA

CITY           SKY/WX    TMP DP  RH WIND       PRES   REMARKS
RENO           SUNNY     89  25  10 S13G20    30.00F
CARSON CITY    FAIR      84  19   9 SW10      30.04F
MINDEN         FAIR      84  28  13 NW9       30.03F
FALLON         SUNNY     88   9   5 VRB3      29.98F
LOVELOCK       SUNNY     86  28  12 S10G21    29.97F
HAWTHORNE      SUNNY     88  12   6 N8        29.97F
$$

NVZ002-CAZ072-073-272200-
NORTHERN AND CENTRAL SIERRA

CITY           SKY/WX    TMP DP  RH WIND       PRES   REMARKS
S. LAKE TAHOE  SUNNY     76  29  17 S12G22    30.15S
TRUCKEE        SUNNY     77  28  16 SW13G18   30.14S
SQUAW VLY 8000   N/A     61  34  36 SW10        N/A
SUSANVILLE     SUNNY     84  32  15 S13       30.00F
MAMMOTH LAKES  FAIR      81  12   7 SW13G23   30.19F
BRIDGEPORT     FAIR      78  19  11 SW13G23   30.15F
$$

NVZ030-031-036-272200-
NORTHERN NEVADA

CITY           SKY/WX    TMP DP  RH WIND       PRES   REMARKS
ELKO           SUNNY     85  25  11 S9G17     30.02F
WINNEMUCCA     SUNNY     86  24  10 S12G17    29.98F
WENDOVER         N/A     90  22   8 NW12G28   29.92F
$$

NVZ035-037-272200-
CENTRAL NEVADA

CITY           SKY/WX    TMP DP  RH WIND       PRES   REMARKS
ELY            SUNNY     85  31  14 VRB6      30.07F
EUREKA           N/A     82  15   8 CALM      30.06F
$$

NVZ013-014-272200-
SOUTH CENTRAL NEVADA

CITY           SKY/WX    TMP DP  RH WIND       PRES   REMARKS
TONOPAH        SUNNY     90  14   6 W14G21    30.05F
$$

NVZ017-020-022-272200-
SOUTHERN NEVADA

CITY           SKY/WX    TMP DP  RH WIND       PRES   REMARKS
LAS VEGAS      SUNNY    106   8   3 S21G28    29.78F
N. LAS VEGAS   SUNNY    103  18   5 MISG      29.78F
NELLIS AFB     SUNNY    102  26   7 W7        29.76F
HENDERSON      SUNNY    103  28   7 SW16G23   29.82F
MERCURY        SUNNY     99  17   5 SW15G21   29.88F
$$




USA.gov is the U.S. government's official web portal to all federal, state and local government web resources and services.